Weather History for Opa Locka, FL

Change the Weather History Date:

Tuesday, March 18, 2014

  Actual Average Record
Temperature  
Mean Temperature 74 °F -  
Max Temperature 79 °F 80 °F 89 °F (1977)
Min Temperature 69 °F 63 °F 44 °F (1956)
Cooling Degree Days 10    
Growing Degree Days 24 (Base 50)    
Moisture  
Dew Point 64 °F    
Average Humidity 71    
Maximum Humidity 93    
Minimum Humidity 46    
Precipitation  
Precipitation 0.11 in - - ()
Sea Level Pressure  
Sea Level Pressure 29.88 in    
Wind  
Wind Speed 13 mph (WNW)    
Max Wind Speed 23 mph    
Max Gust Speed 34 mph    
Visibility 10 miles    
Events Rain    
Averages and records for this station are not official NWS values.
T = Trace of Precipitation, MM = Missing Value Source: NWS Daily Summary

Daily Weather History Graph

Daily Weather History Graph

Search for Another Location

Airport:

Trip Planner

Search our weather history database for the weather conditions in past years. The results will help you decide how hot, cold, wet, or windy it might be!

Date:

Astronomy

Mar. 18, 2014 Rise Set
Actual Time 7:27 AM EDT 7:31 PM EDT
Civil Twilight 7:04 AM EDT 7:54 PM EDT
Nautical Twilight 6:37 AM EDT 8:21 PM EDT
Astronomical Twilight 6:10 AM EDT 8:48 PM EDT
Moon 9:31 PM EDT (3/18) 8:28 AM EDT (3/18)
Length of Visible Light 12h 50m
Length of Day
12h 04m
Waning Gibbous, 96% of the Moon is Illuminated
Mar 18
Waning Gibbous
Mar 23
Last Quarter
Mar 30
New
Apr 7
First Quarter
Apr 15
Full

Hourly Weather History & Observations

Time (EDT) Temp. Dew Point Humidity Pressure Visibility Wind Dir Wind Speed Gust Speed Precip Events Conditions
12:53 AM 79.0 °F 70.0 °F 74% 29.79 in 10.0 mi South 17.3 mph - N/A   Clear
1:53 AM 79.0 °F 71.1 °F 77% 29.80 in 10.0 mi SSW 13.8 mph - N/A   Clear
2:53 AM 79.0 °F 70.0 °F 74% 29.78 in 10.0 mi SSW 15.0 mph 26.5 mph N/A   Partly Cloudy
3:53 AM 79.0 °F 70.0 °F 74% 29.77 in 10.0 mi SSW 20.7 mph 28.8 mph N/A   Mostly Cloudy
4:13 AM 78.1 °F 70.0 °F 76% 29.76 in 10.0 mi SSW 19.6 mph 28.8 mph N/A   Scattered Clouds
4:53 AM 78.1 °F 70.0 °F 76% 29.76 in 10.0 mi SSW 20.7 mph 32.2 mph N/A   Partly Cloudy
5:53 AM 78.1 °F 70.0 °F 76% 29.75 in 10.0 mi SSW 20.7 mph 34.5 mph N/A   Clear
6:53 AM 78.1 °F 69.1 °F 74% 29.77 in 10.0 mi SW 17.3 mph 25.3 mph N/A   Partly Cloudy
7:53 AM 73.9 °F 69.1 °F 85% 29.83 in 8.0 mi WNW 23.0 mph 32.2 mph 0.01 in Rain Light Rain
7:59 AM 71.1 °F 66.9 °F 87% 29.83 in 4.0 mi WNW 8.1 mph 29.9 mph 0.01 in Rain Light Rain
8:16 AM 70.0 °F 66.9 °F 90% 29.83 in 1.5 mi West 12.7 mph - 0.07 in Rain Rain
8:42 AM 70.0 °F 68.0 °F 93% 29.83 in 10.0 mi West 5.8 mph - 0.10 in   Overcast
8:53 AM 70.0 °F 68.0 °F 93% 29.84 in 10.0 mi WNW 5.8 mph - 0.10 in   Mostly Cloudy
9:06 AM 71.1 °F 68.0 °F 90% 29.85 in 10.0 mi West 6.9 mph - N/A   Mostly Cloudy
9:18 AM 71.1 °F 66.9 °F 87% 29.87 in 10.0 mi West 8.1 mph - N/A   Mostly Cloudy
9:33 AM 71.1 °F 66.9 °F 87% 29.88 in 10.0 mi WNW 11.5 mph - N/A   Overcast
9:53 AM 71.1 °F 66.0 °F 84% 29.90 in 10.0 mi NW 10.4 mph - N/A   Overcast
10:12 AM 70.0 °F 64.0 °F 81% 29.91 in 10.0 mi NW 13.8 mph - N/A   Overcast
10:53 AM 70.0 °F 63.0 °F 78% 29.94 in 10.0 mi NNW 10.4 mph - N/A   Overcast
11:50 AM 71.6 °F 60.8 °F 69% 29.95 in 10.0 mi NW 13.8 mph - N/A   Overcast
11:53 AM 71.1 °F 61.0 °F 70% 29.96 in 10.0 mi NW 16.1 mph - N/A   Overcast
12:53 PM 73.9 °F 60.1 °F 62% 29.95 in 10.0 mi NW 11.5 mph - N/A   Mostly Cloudy
1:00 PM 75.0 °F 60.1 °F 60% 29.94 in 10.0 mi NW 12.7 mph 19.6 mph N/A   Mostly Cloudy
1:53 PM 77.0 °F 60.1 °F 56% 29.94 in 10.0 mi NW 11.5 mph 20.7 mph N/A   Partly Cloudy
2:53 PM 79.0 °F 59.0 °F 50% 29.92 in 10.0 mi NW 10.4 mph 19.6 mph N/A   Mostly Cloudy
3:53 PM 77.0 °F 59.0 °F 54% 29.92 in 10.0 mi NNW 10.4 mph - N/A   Mostly Cloudy
4:53 PM 75.9 °F 57.0 °F 52% 29.92 in 10.0 mi NW 11.5 mph - N/A   Partly Cloudy
5:53 PM 78.1 °F 57.0 °F 48% 29.93 in 10.0 mi NW 8.1 mph - N/A   Partly Cloudy
6:53 PM 78.1 °F 55.9 °F 46% 29.95 in 10.0 mi North 5.8 mph - N/A   Scattered Clouds
7:53 PM 75.0 °F 55.9 °F 51% 29.96 in 10.0 mi NNW 3.5 mph - N/A   Mostly Cloudy
8:53 PM 73.0 °F 55.9 °F 55% 29.99 in 10.0 mi Calm Calm - N/A   Scattered Clouds
9:53 PM 73.0 °F 55.9 °F 55% 30.01 in 10.0 mi NE 5.8 mph - N/A   Overcast
10:53 PM 73.0 °F 55.9 °F 55% 30.02 in 10.0 mi North 3.5 mph - N/A   Mostly Cloudy
11:53 PM 69.1 °F 55.9 °F 63% 30.03 in 10.0 mi Calm Calm - N/A   Scattered Clouds